Regional Weather Roundup
Issued by NWS

Home | Current Version | Previous Version | Text Only | Print | Product List | Glossary On
Versions: 1 2 3 4 5 6 7 8 9 10 11 12 13 14 15 16 17 18 19 20 21 22 23 24 25 26 27 28 29 30 31 32 33 34 35 36 37 38 39 40 41 42 43 44 45 46 47 48 49
000
ASUS45 KCYS 040810
RWRWY

WYOMING REGIONAL WEATHER ROUNDUP
NATIONAL WEATHER SERVICE CHEYENNE WY
200 AM MDT FRI SEP 04 2015

NOTE:  "FAIR" INDICATES FEW OR NO CLOUDS BELOW 12,000 FEET
WITH NO SIGNIFICANT WEATHER AND/OR OBSTRUCTIONS TO VISIBILITY.

WYZ001-040900-
YELLOWSTONE NATIONAL PARK

CITY           SKY/WX    TMP DP  RH WIND       PRES   REMARKS
LK YELLOWSTONE   N/A     44  42  93 CALM      30.05F
W YELLOWSTONE  NOT AVBL

$$
WYZ002>013-054>058-071-098>099-040900-
NORTHERN WYOMING

CITY           SKY/WX    TMP DP  RH WIND       PRES   REMARKS
JACKSON        MOCLDY    54  46  76 NE6       29.95F
CODY           FAIR      59  45  58 NE12      29.93R
GREYBULL       LGT RAIN  63  47  55 NW15      29.88R
WORLAND        FAIR      58  44  60 NE10      29.86R
SHERIDAN       FAIR      56  42  59 E3        29.83F
BUFFALO        FAIR      61  40  45 N3        29.89S
GILLETTE       FAIR      63  42  46 E5        29.85R
HULETT         FAIR      73  43  33 SW10      29.83S
NEWCASTLE      FAIR      73  41  31 CALM      29.84S

$$
WYZ014>020-022>026-101>103-040900-
CENTRAL WYOMING

CITY           SKY/WX    TMP DP  RH WIND       PRES   REMARKS
BIG PINEY      FAIR      45  36  70 VRB5      30.03R
PINEDALE       FAIR      46  36  66 N3        30.03S
DUBOIS         FAIR      50  36  57 W8        30.02S
LANDER         FAIR      62  36  37 S3        29.89R
RIVERTON       FAIR      65  42  43 S5        29.92R
CASPER         FAIR      59  40  49 W6        29.91F
DOUGLAS        FAIR      55  51  86 CALM      29.91S

$$
WYZ021-027>030-104>119-040900-
SOUTHERN WYOMING

CITY           SKY/WX    TMP DP  RH WIND       PRES   REMARKS
EVANSTON       FAIR      59  28  30 SW13      30.01S
KEMMERER       FAIR      57  28  33 S3        30.03S
FORT BRIDGER   SUNNY     61  30  31 SW12      30.04S
ROCK SPRINGS   FAIR      60  36  40 S8        30.01S
DIXON          FAIR      57  44  61 CALM      30.08S
RAWLINS        FAIR      54  44  69 NE6       30.05S
SARATOGA       FAIR      54  45  71 SE13G18   30.09S
LARAMIE        FAIR      46  32  58 SE7       30.10S
CHEYENNE       FAIR      53  44  71 W9        30.01F
TORRINGTON     FAIR      62  51  67 NW5       29.87F
PINE BLUFFS    FAIR      48  45  87 CALM      29.97S

$$


USA.gov is the U.S. government's official web portal to all federal, state and local government web resources and services.